TimePDT,TemperatureF,Dew PointF,Humidity,Sea Level PressureIn,VisibilityMPH,Wind Direction,Wind SpeedMPH,Gust SpeedMPH,PrecipitationIn,Events,Conditions,WindDirDegrees,DateUTC
12:56 AM,88.0,60.1,39,29.78,10.0,SSE,9.2,-,N/A,,Overcast,160,2013-09-03 07:56:00
1:56 AM,84.9,59.0,41,29.81,10.0,SE,10.4,-,0.01,,Mostly Cloudy,130,2013-09-03 08:56:00
2:56 AM,80.1,63.0,56,29.83,10.0,East,10.4,-,N/A,Thunderstorm,Thunderstorm,100,2013-09-03 09:56:00
3:56 AM,79.0,63.0,58,29.82,10.0,Calm,Calm,-,0.00,Thunderstorm,Thunderstorm,0,2013-09-03 10:56:00
4:01 AM,78.8,62.6,57,29.90,10.0,West,4.6,-,N/A,,Mostly Cloudy,260,2013-09-03 11:01:00
4:56 AM,80.1,62.1,54,29.84,10.0,Calm,Calm,-,N/A,,Overcast,0,2013-09-03 11:56:00
5:56 AM,78.1,63.0,60,29.87,10.0,ESE,8.1,-,N/A,,Mostly Cloudy,110,2013-09-03 12:56:00
6:56 AM,77.0,64.0,64,29.91,10.0,SE,5.8,-,N/A,,Mostly Cloudy,130,2013-09-03 13:56:00
7:56 AM,79.0,63.0,58,29.92,10.0,SSW,5.8,-,N/A,,Mostly Cloudy,200,2013-09-03 14:56:00
8:56 AM,81.0,63.0,54,29.93,10.0,Calm,Calm,-,N/A,,Mostly Cloudy,0,2013-09-03 15:56:00
9:56 AM,82.0,63.0,52,29.93,10.0,South,8.1,-,N/A,,Mostly Cloudy,190,2013-09-03 16:56:00
10:56 AM,84.0,63.0,49,29.93,10.0,Variable,5.8,-,N/A,,Mostly Cloudy,0,2013-09-03 17:56:00
11:26 AM,86.0,62.6,45,30.00,10.0,Calm,Calm,-,N/A,,Scattered Clouds,0,2013-09-03 18:26:00
11:56 AM,88.0,62.1,42,29.88,10.0,Calm,Calm,-,N/A,,Scattered Clouds,0,2013-09-03 18:56:00
12:56 PM,89.1,61.0,39,29.86,10.0,SSW,6.9,-,N/A,,Scattered Clouds,200,2013-09-03 19:56:00
1:56 PM,91.9,60.1,34,29.83,10.0,Variable,5.8,-,N/A,,Scattered Clouds,0,2013-09-03 20:56:00
2:56 PM,93.9,57.9,30,29.83,10.0,Variable,4.6,-,N/A,,Scattered Clouds,0,2013-09-03 21:56:00
3:56 PM,95.0,55.9,27,29.80,10.0,SE,8.1,-,N/A,,Scattered Clouds,140,2013-09-03 22:56:00
4:56 PM,96.1,55.9,26,29.78,10.0,ESE,3.5,-,N/A,,Scattered Clouds,120,2013-09-03 23:56:00
5:56 PM,96.1,54.0,24,29.78,10.0,ESE,3.5,-,N/A,,Scattered Clouds,110,2013-09-04 00:56:00
6:56 PM,95.0,52.0,23,29.78,10.0,SE,6.9,-,N/A,,Scattered Clouds,130,2013-09-04 01:56:00
7:56 PM,93.9,51.1,23,29.80,10.0,SE,5.8,-,N/A,,Scattered Clouds,140,2013-09-04 02:56:00
8:56 PM,93.0,53.1,26,29.81,10.0,SSE,4.6,-,N/A,,Scattered Clouds,160,2013-09-04 03:56:00
9:56 PM,91.9,54.0,27,29.83,10.0,SSE,4.6,-,N/A,,Scattered Clouds,160,2013-09-04 04:56:00
10:56 PM,90.0,57.0,33,29.83,10.0,South,3.5,-,N/A,,Partly Cloudy,190,2013-09-04 05:56:00
11:56 PM,89.1,57.9,35,29.81,10.0,SSW,5.8,-,N/A,,Partly Cloudy,200,2013-09-04 06:56:00